This is the latest recevied weather packets stored in our database for station/object K0QED. If no packets are shown the sender has not sent any weather packets the latest 10 day(s).
| Time | Temp. | Humidity | Pressure | Rain* | Wind** | Luminosity | Snow |
|---|---|---|---|---|---|---|---|
| 1788348426 | 16.67° C | 48% | 1024.7 hPa | 0 mm | - | 0 W/m² | - |
| 1788348124 | 16.67° C | 49% | 1025 hPa | 0 mm | - | 0 W/m² | - |
| 1788347819 | 16.67° C | 49% | 1024.9 hPa | 0 mm | - | 0 W/m² | - |
| 1788347515 | 16.67° C | 50% | 1025 hPa | 0 mm | - | 0 W/m² | - |
| 1788347211 | 16.67° C | 50% | 1024.7 hPa | 0 mm | - | 0 W/m² | - |
| 1788346907 | 16.11° C | 52% | 1024.7 hPa | 0 mm | - | 0 W/m² | - |
| 1788346606 | 16.11° C | 54% | 1024.7 hPa | 0 mm | - | 0 W/m² | - |
| 1788346302 | 16.11° C | 55% | 1024.7 hPa | 0 mm | - | 0 W/m² | - |
| 1788345997 | 15.56° C | 56% | 1024.7 hPa | 0 mm | - | 0 W/m² | - |
| 1788345692 | 15.56° C | 57% | 1025.1 hPa | 0 mm | - | 0 W/m² | - |
| 1788345392 | 16.11° C | 55% | 1024.9 hPa | 0 mm | - | 0 W/m² | - |
| 1788345087 | 16.11° C | 55% | 1024.6 hPa | 0 mm | - | 0 W/m² | - |
| 1788344783 | 16.67° C | 54% | 1024.7 hPa | 0 mm | - | 0 W/m² | - |
| 1788344480 | 16.67° C | 54% | 1024.7 hPa | 0 mm | - | 0 W/m² | - |
| 1788344175 | 16.67° C | 54% | 1024.5 hPa | 0 mm | - | 0 W/m² | - |
| 1788343874 | 16.67° C | 55% | 1024.4 hPa | 0 mm | - | 0 W/m² | - |
| 1788343569 | 16.67° C | 56% | 1024.5 hPa | 0 mm | - | 0 W/m² | - |
| 1788343264 | 16.67° C | 56% | 1024.7 hPa | 0 mm | - | 0 W/m² | - |
| 1788342963 | 16.67° C | 56% | 1024.6 hPa | 0 mm | - | 0 W/m² | - |
| 1788342662 | 16.67° C | 55% | 1024.7 hPa | 0 mm | - | 0 W/m² | - |
| 1788342357 | 17.22° C | 55% | 1024.5 hPa | 0 mm | - | 0 W/m² | - |
| 1788342054 | 16.67° C | 54% | 1024.9 hPa | 0 mm | - | 0 W/m² | - |
| 1788341748 | 16.67° C | 55% | 1024.9 hPa | 0 mm | - | 0 W/m² | - |
| 1788341443 | 16.67° C | 57% | 1024.9 hPa | 0 mm | - | 0 W/m² | - |
| 1788341138 | 16.67° C | 58% | 1024.7 hPa | 0 mm | - | 0 W/m² | - |
* Rain latest hour (hover to see other rain measurements)
** Current wind speed in m/s (hover to see current wind gust speed)